Home   Weather   Werl   Past weeks

Flag for Germany Past Weather in Werl, North Rhine-Westphalia, Germany — Yesterday and Last 2 Weeks

Now
46 °F

Partly sunny.


Feels Like: 38 °F
Forecast: 35 / 41 °F
Wind: 22 mph from Southwest

Location: Dortmund / Wickede

Current Time: Feb 23, 2017 at 10:43:24 am

Latest Report: Feb 23, 2017 at 9:50 am


Visibility: 4 mi

Pressure: 29.47 "Hg

Humidity: 82%

Dew Point: 41 °F

Location of WerlLocation

Past Weather in Werl — Graph

°F

Werl Temperature Yesterday

Maximum temperature yesterday: 50 °F (at 5:20 am)
Minimum temperature yesterday: 45 °F (at 6:50 pm)
Average temperature yesterday: 48 °F

High & Low Weather Summary for the Past Weeks

 TemperatureHumidityPressure
High61 °F (Feb 15, 2:50 pm)94% (Feb 20, 9:50 pm)30.51 "Hg (Feb 20, 9:50 pm)
Low27 °F (Feb 9, 7:20 am)29% (Feb 15, 2:50 pm)29.50 "Hg (Feb 23, 8:20 am)
Average40 °F75%30.18 "Hg
* Reported Feb 8 9:20 am — Feb 23 9:20 am, Werl, Weather by CustomWeather, © 2017

Note: Actual official high and low records may vary slightly from our data, if they occured in-between our weather recording intervals... More about our weather records

Advertising

Werl Weather History for the Previous 24 Hours

Scroll right to see more
 ConditionsComfort  
Time TempWeatherWind HumidityBarometerVisibility
9:20 am
Thu, Feb 23
46 °FDrizzle. Partly sunny.23 mph82%29.50 "Hg4 mi
8:50 am46 °FLight rain. Overcast.24 mph82%29.50 "Hg3 mi
8:20 am46 °FLight rain. Overcast.23 mph82%29.50 "Hg3 mi
7:50 am46 °FDrizzle. Overcast.24 mph82%29.53 "Hg5 mi
7:20 am46 °FLight rain. Overcast.22 mph87%29.53 "Hg5 mi
6:50 am46 °FLight rain. Overcast.23 mph87%29.53 "HgN/A
6:20 am46 °FLight rain. Overcast.20 mph87%29.53 "Hg6 mi
5:50 am46 °FLight rain. Overcast.20 mph87%29.56 "Hg4 mi
5:20 am46 °FRain. Mostly cloudy.17 mph87%29.56 "HgN/A
9:50 pm
Wed, Feb 22
46 °FLight rain. Passing clouds.13 mph87%29.68 "Hg5 mi
9:20 pm46 °FLight rain. Passing clouds.12 mph87%29.68 "HgN/A
8:50 pm46 °FLight rain. Partly cloudy.12 mph87%29.68 "HgN/A
8:20 pm46 °FLight rain. Passing clouds.10 mph87%29.65 "HgN/A
7:50 pm46 °FLight rain. Passing clouds.9 mph87%29.65 "Hg5 mi
7:20 pm45 °FLight rain. Passing clouds.9 mph93%29.65 "Hg3 mi
6:50 pm45 °FPassing clouds.8 mph93%29.65 "HgN/A
6:20 pm48 °FLight rain. Passing clouds.20 mph87%29.62 "Hg5 mi
5:50 pm48 °FLight rain. Partly sunny.22 mph87%29.62 "Hg4 mi
5:20 pm48 °FLight rain. Partly sunny.23 mph87%29.62 "Hg6 mi
4:50 pm48 °FLight rain. Partly sunny.24 mph87%29.62 "Hg5 mi
4:20 pm48 °FLight rain. Partly sunny.26 mph87%29.62 "HgN/A
3:50 pm48 °FLight rain. Partly sunny.23 mph87%29.62 "HgN/A
3:20 pm48 °FLight rain. Partly sunny.23 mph87%29.65 "HgN/A
2:50 pm48 °FPartly sunny.23 mph87%29.65 "HgN/A
2:20 pm48 °FLight rain. Low clouds.22 mph87%29.65 "Hg4 mi
1:50 pm48 °FLight rain. Partly sunny.23 mph87%29.68 "Hg4 mi
1:20 pm48 °FPartly sunny.21 mph82%29.68 "Hg4 mi
12:50 pm48 °FLight rain. Partly sunny.23 mph87%29.68 "Hg4 mi
12:20 pm48 °FPartly sunny.21 mph87%29.68 "Hg6 mi
11:50 am48 °FLight rain. Partly sunny.23 mph87%29.68 "Hg4 mi
11:20 am48 °FLight rain. Partly sunny.22 mph87%29.68 "Hg4 mi
10:50 am48 °FLight rain. Partly sunny.22 mph82%29.68 "Hg4 mi
10:20 am48 °FLight rain. Partly sunny.23 mph82%29.68 "Hg4 mi
Weather by CustomWeather, © 2017

See weather overviewHow to use our weather pages